Lid_Strength_Index
3 4 4 3 3 3 3 3 3 3 2 2 2 2 3 3 3 3 3 3 3 3
3 3 3 3 3 3 3 2 2 2 2 2 2 2 3 3 2 2 3 3 3 3
3 3 2 2 2 3 3 3 3 3 2 2 3 2 2 1 1 1 1 3 3 2
3 3 2 2 3 2 3 2 2 2 2 3 2 2 1 2 2 2 2 2 2 2
3 3 3 3 3 3 3 2 2 2 2 2 3 2 2 2 3 3 2 2 2 2
3 3 3 3 3 2 2 2 2 2 2 2 2 2 1 1 1 1 2 2 2 2
4 3 3 3 2 3 2 2 2 2 2 1 1 1 1 1 2 2 1 2 1 1
3 4 3 2 2 2 2 2 1 1 1 1 1 1 2 2 2 2 2 2 1 1
3 3 3 3 3 3 3 3 2 1 1 1 1 7 5 2 2 2 2 2 2 2
3 3 4 3 3 4 4 4 4 2 2 2 3 8 7 6 1 1 1 2 2 1
3 3 3 4 4 4 5 5 5 5 3 3 4 9 9 6 2 2 2 2 2 2
3 3 3 3 4 4 4 6 6 5 4 4 5 10 9 4 2 2 3 2 2 2
3 3 4 4 4 4 5 5 6 6 5 7 6 10 9 5 3 3 3 3 3 5
3 4 4 4 3 4 4 5 6 6 6 6 6 8 10 8 3 4 4 4 5 5